Year,Month,Day,Hour,Minute,Value (Times are PST for temperature in C)
2022,05,05,00,00,9.20
2022,05,05,00,01,9.20
2022,05,05,00,02,9.20
2022,05,05,00,03,9.20
2022,05,05,00,04,9.20
2022,05,05,00,05,9.20
2022,05,05,00,06,9.20
2022,05,05,00,07,9.20
2022,05,05,00,08,9.20
2022,05,05,00,09,9.20
2022,05,05,00,10,9.20
2022,05,05,00,11,9.20
2022,05,05,00,12,9.20
2022,05,05,00,13,9.20
2022,05,05,00,14,9.20
2022,05,05,00,15,9.20
2022,05,05,00,16,9.20
2022,05,05,00,17,9.20
2022,05,05,00,18,9.20
2022,05,05,00,19,9.20
2022,05,05,00,20,9.20
2022,05,05,00,21,9.20
2022,05,05,00,22,9.20
2022,05,05,00,23,9.20
2022,05,05,00,24,9.20
2022,05,05,00,25,9.20
2022,05,05,00,26,9.20
2022,05,05,00,27,9.20
2022,05,05,00,28,9.20
2022,05,05,00,29,9.20
2022,05,05,00,30,9.20
2022,05,05,00,31,9.20
2022,05,05,00,32,9.20
2022,05,05,00,33,9.20
2022,05,05,00,34,9.20
2022,05,05,00,35,9.20
2022,05,05,00,36,9.20
2022,05,05,00,37,9.20
2022,05,05,00,38,9.20
2022,05,05,00,39,9.20
2022,05,05,00,40,9.20
2022,05,05,00,41,9.20
2022,05,05,00,42,9.20
2022,05,05,00,43,9.20
2022,05,05,00,44,9.20
2022,05,05,00,45,9.20
2022,05,05,00,46,9.20
2022,05,05,00,47,9.20
2022,05,05,00,48,9.20
2022,05,05,00,49,9.20
2022,05,05,00,50,9.20
2022,05,05,00,51,9.20
2022,05,05,00,52,9.20
2022,05,05,00,53,9.20
2022,05,05,00,54,9.20
2022,05,05,00,55,9.20
2022,05,05,00,56,9.20
2022,05,05,00,57,9.20
2022,05,05,00,58,9.20
2022,05,05,00,59,9.20
2022,05,05,01,00,9.20
2022,05,05,01,01,9.20
2022,05,05,01,02,9.20
2022,05,05,01,03,9.20
2022,05,05,01,04,9.20
2022,05,05,01,05,9.20
2022,05,05,01,06,9.20
2022,05,05,01,07,9.20
2022,05,05,01,08,9.20
2022,05,05,01,09,9.20
2022,05,05,01,10,9.20
2022,05,05,01,11,9.20
2022,05,05,01,12,9.20
2022,05,05,01,13,9.20
2022,05,05,01,14,9.20
2022,05,05,01,15,9.20
2022,05,05,01,16,9.20
2022,05,05,01,17,9.10
2022,05,05,01,18,9.10
2022,05,05,01,19,9.10
2022,05,05,01,20,9.10
2022,05,05,01,21,9.10
2022,05,05,01,22,9.10
2022,05,05,01,23,9.10
2022,05,05,01,24,9.10
2022,05,05,01,25,9.10
2022,05,05,01,26,9.10
2022,05,05,01,27,9.10
2022,05,05,01,28,9.00
2022,05,05,01,29,9.10
2022,05,05,01,30,9.00
2022,05,05,01,31,9.00
2022,05,05,01,32,9.00
2022,05,05,01,33,9.00
2022,05,05,01,34,9.00
2022,05,05,01,35,8.90
2022,05,05,01,36,8.90
2022,05,05,01,37,8.90
2022,05,05,01,38,8.90
2022,05,05,01,39,8.90
2022,05,05,01,40,8.90
2022,05,05,01,41,8.90
2022,05,05,01,42,8.90
2022,05,05,01,43,8.90
2022,05,05,01,44,8.90
2022,05,05,01,45,8.90
2022,05,05,01,46,8.90
2022,05,05,01,47,8.90
2022,05,05,01,48,8.90
2022,05,05,01,49,8.90
2022,05,05,01,50,8.90
2022,05,05,01,51,8.90
2022,05,05,01,52,8.90
2022,05,05,01,53,9.00
2022,05,05,01,54,9.00
2022,05,05,01,55,9.00
2022,05,05,01,56,9.00
2022,05,05,01,57,9.00
2022,05,05,01,58,9.00
2022,05,05,01,59,9.00
2022,05,05,02,00,9.00
2022,05,05,02,01,9.10
2022,05,05,02,02,9.10
2022,05,05,02,03,9.10
2022,05,05,02,04,9.10
2022,05,05,02,05,9.10
2022,05,05,02,06,9.10
2022,05,05,02,07,9.10
2022,05,05,02,08,9.10
2022,05,05,02,09,9.10
2022,05,05,02,10,9.10
2022,05,05,02,11,9.10
2022,05,05,02,12,9.10
2022,05,05,02,13,9.10
2022,05,05,02,14,9.10
2022,05,05,02,15,9.10
2022,05,05,02,16,9.10
2022,05,05,02,17,9.10
2022,05,05,02,18,9.10
2022,05,05,02,19,9.10
2022,05,05,02,20,9.10
2022,05,05,02,21,9.10
2022,05,05,02,22,9.10
2022,05,05,02,23,9.20
2022,05,05,02,24,9.10
2022,05,05,02,25,9.10
2022,05,05,02,26,9.10
2022,05,05,02,27,9.10
2022,05,05,02,28,9.10
2022,05,05,02,29,9.10
2022,05,05,02,30,9.10
2022,05,05,02,31,9.10
2022,05,05,02,32,9.10
2022,05,05,02,33,9.10
2022,05,05,02,34,9.10
2022,05,05,02,35,9.10
2022,05,05,02,36,9.10
2022,05,05,02,37,9.20
2022,05,05,02,38,9.20
2022,05,05,02,39,9.20
2022,05,05,02,40,9.20
2022,05,05,02,41,9.20
2022,05,05,02,42,9.20
2022,05,05,02,43,9.20
2022,05,05,02,44,9.20
2022,05,05,02,45,9.20
2022,05,05,02,46,9.10
2022,05,05,02,47,9.10
2022,05,05,02,48,9.10
2022,05,05,02,49,9.10
2022,05,05,02,50,9.10
2022,05,05,02,51,9.10
2022,05,05,02,52,9.10
2022,05,05,02,53,9.10
2022,05,05,02,54,9.10
2022,05,05,02,55,9.10
2022,05,05,02,56,9.10
2022,05,05,02,57,9.10
2022,05,05,02,58,9.10
2022,05,05,02,59,9.10
2022,05,05,03,00,9.10
2022,05,05,03,01,9.10
2022,05,05,03,02,9.00
2022,05,05,03,06,9.00
2022,05,05,03,07,9.00
2022,05,05,03,08,9.00
2022,05,05,03,09,9.00
2022,05,05,03,10,9.00
2022,05,05,03,11,9.00
2022,05,05,03,12,9.00
2022,05,05,03,13,9.00
2022,05,05,03,14,9.00
2022,05,05,03,15,9.00
2022,05,05,03,16,9.00
2022,05,05,03,17,9.00
2022,05,05,03,18,9.10
2022,05,05,03,19,9.10
2022,05,05,03,20,9.00
2022,05,05,03,21,9.10
2022,05,05,03,22,9.10
2022,05,05,03,23,9.10
2022,05,05,03,24,9.10
2022,05,05,03,25,9.10
2022,05,05,03,26,9.10
2022,05,05,03,27,9.10
2022,05,05,03,28,9.10
2022,05,05,03,29,9.10
2022,05,05,03,30,9.10
2022,05,05,03,31,9.10
2022,05,05,03,32,9.10
2022,05,05,03,33,9.10
2022,05,05,03,34,9.10
2022,05,05,03,35,9.10
2022,05,05,03,36,9.10
2022,05,05,03,37,9.10
2022,05,05,03,38,9.10
2022,05,05,03,39,9.10
2022,05,05,03,40,9.10
2022,05,05,03,41,9.10
2022,05,05,03,42,9.10
2022,05,05,03,43,9.10
2022,05,05,03,44,9.10
2022,05,05,03,45,9.10
2022,05,05,03,46,9.10
2022,05,05,03,47,9.10
2022,05,05,03,48,9.10
2022,05,05,03,49,9.10
2022,05,05,03,50,9.10
2022,05,05,03,51,9.10
2022,05,05,03,52,9.10
2022,05,05,03,53,9.10
2022,05,05,03,54,9.10
2022,05,05,03,55,9.10
2022,05,05,03,56,9.10
2022,05,05,03,57,9.10
2022,05,05,03,58,9.10
2022,05,05,03,59,9.10
2022,05,05,04,00,9.10
2022,05,05,04,01,9.10
2022,05,05,04,02,9.10
2022,05,05,04,03,9.10
2022,05,05,04,04,9.10
2022,05,05,04,05,9.00
2022,05,05,04,06,9.00
2022,05,05,04,07,9.00
2022,05,05,04,08,9.00
2022,05,05,04,09,9.00
2022,05,05,04,10,9.00
2022,05,05,04,11,9.00
2022,05,05,04,12,9.00
2022,05,05,04,13,9.00
2022,05,05,04,14,8.90
2022,05,05,04,15,8.90
2022,05,05,04,16,8.90
2022,05,05,04,17,8.90
2022,05,05,04,18,8.90
2022,05,05,04,19,8.90
2022,05,05,04,20,8.90
2022,05,05,04,21,8.90
2022,05,05,04,22,8.90
2022,05,05,04,23,8.90
2022,05,05,04,24,8.90
2022,05,05,04,25,8.90
2022,05,05,04,26,8.90
2022,05,05,04,27,8.90
2022,05,05,04,28,8.90
2022,05,05,04,29,8.90
2022,05,05,04,30,8.90
2022,05,05,04,31,8.90
2022,05,05,04,32,8.90
2022,05,05,04,33,8.80
2022,05,05,04,34,8.80
2022,05,05,04,35,8.80
2022,05,05,04,36,8.80
2022,05,05,04,37,8.80
2022,05,05,04,38,8.80
2022,05,05,04,39,8.70
2022,05,05,04,40,8.70
2022,05,05,04,41,8.70
2022,05,05,04,42,8.70
2022,05,05,04,43,8.70
2022,05,05,04,44,8.70
2022,05,05,04,45,8.60
2022,05,05,04,46,8.60
2022,05,05,04,47,8.60
2022,05,05,04,48,8.60
2022,05,05,04,49,8.60
2022,05,05,04,50,8.60
2022,05,05,04,51,8.60
2022,05,05,04,52,8.60
2022,05,05,04,53,8.60
2022,05,05,04,54,8.60
2022,05,05,04,55,8.60
2022,05,05,04,56,8.60
2022,05,05,04,57,8.60
2022,05,05,04,58,8.60
2022,05,05,04,59,8.60
2022,05,05,05,00,8.60
2022,05,05,05,01,8.50
2022,05,05,05,02,8.50
2022,05,05,05,03,8.50
2022,05,05,05,04,8.50
2022,05,05,05,05,8.50
2022,05,05,05,06,8.40
2022,05,05,05,07,8.40
2022,05,05,05,08,8.40
2022,05,05,05,09,8.40
2022,05,05,05,10,8.40
2022,05,05,05,11,8.40
2022,05,05,05,12,8.40
2022,05,05,05,13,8.40
2022,05,05,05,14,8.40
2022,05,05,05,15,8.40
2022,05,05,05,16,8.40
2022,05,05,05,17,8.40
2022,05,05,05,18,8.40
2022,05,05,05,19,8.50
2022,05,05,05,20,8.50
2022,05,05,05,21,8.50
2022,05,05,05,22,8.50
2022,05,05,05,23,8.50
2022,05,05,05,24,8.50
2022,05,05,05,25,8.60
2022,05,05,05,26,8.60
2022,05,05,05,27,8.60
2022,05,05,05,28,8.60
2022,05,05,05,29,8.60
2022,05,05,05,30,8.60
2022,05,05,05,31,8.60
2022,05,05,05,32,8.60
2022,05,05,05,33,8.70
2022,05,05,05,34,8.70
2022,05,05,05,35,8.70
2022,05,05,05,36,8.70
2022,05,05,05,37,8.70
2022,05,05,05,38,8.70
2022,05,05,05,39,8.70
2022,05,05,05,40,8.70
2022,05,05,05,41,8.70
2022,05,05,05,42,8.70
2022,05,05,05,43,8.70
2022,05,05,05,44,8.70
2022,05,05,05,45,8.70
2022,05,05,05,46,8.70
2022,05,05,05,47,8.70
2022,05,05,05,48,8.70
2022,05,05,05,49,8.70
2022,05,05,05,50,8.70
2022,05,05,05,51,8.80
2022,05,05,05,52,8.80
2022,05,05,05,53,8.80
2022,05,05,05,54,8.80
2022,05,05,05,55,8.80
2022,05,05,05,56,8.80
2022,05,05,05,57,8.80
2022,05,05,05,58,8.80
2022,05,05,05,59,8.80
2022,05,05,06,00,8.80
2022,05,05,06,01,8.80
2022,05,05,06,02,8.80
2022,05,05,06,03,8.80
2022,05,05,06,04,8.80
2022,05,05,06,05,8.80
2022,05,05,06,06,8.80
2022,05,05,06,07,8.80
2022,05,05,06,08,8.80
2022,05,05,06,09,8.80
2022,05,05,06,10,8.80
2022,05,05,06,11,8.80
2022,05,05,06,12,8.80
2022,05,05,06,13,8.80
2022,05,05,06,14,8.80
2022,05,05,06,15,8.80
2022,05,05,06,16,8.80
2022,05,05,06,17,8.80
2022,05,05,06,18,8.80
2022,05,05,06,19,8.80
2022,05,05,06,20,8.80
2022,05,05,06,21,8.80
2022,05,05,06,22,8.80
2022,05,05,06,23,8.80
2022,05,05,06,24,8.80
2022,05,05,06,25,8.80
2022,05,05,06,26,8.80
2022,05,05,06,27,8.80
2022,05,05,06,28,8.80
2022,05,05,06,29,8.80
2022,05,05,06,30,8.80
2022,05,05,06,31,8.80
2022,05,05,06,32,8.80
2022,05,05,06,33,8.90
2022,05,05,06,34,8.90
2022,05,05,06,35,8.90
2022,05,05,06,36,8.90
2022,05,05,06,37,8.90
2022,05,05,06,38,8.90
2022,05,05,06,39,8.90
2022,05,05,06,40,8.90
2022,05,05,06,41,8.90
2022,05,05,06,42,8.90
2022,05,05,06,43,8.90
2022,05,05,06,44,8.90
2022,05,05,06,45,8.90
2022,05,05,06,46,8.90
2022,05,05,06,47,9.00
2022,05,05,06,48,9.00
2022,05,05,06,49,9.00
2022,05,05,06,50,9.00
2022,05,05,06,51,9.00
2022,05,05,06,52,9.00
2022,05,05,06,53,9.00
2022,05,05,06,54,9.10
2022,05,05,06,55,9.10
2022,05,05,06,56,9.10
2022,05,05,06,57,9.10
2022,05,05,06,58,9.10
2022,05,05,06,59,9.10
2022,05,05,07,00,9.10
2022,05,05,07,01,9.10
2022,05,05,07,02,9.10
2022,05,05,07,03,9.20
2022,05,05,07,04,9.20
2022,05,05,07,05,9.20
2022,05,05,07,06,9.20
2022,05,05,07,07,9.20
2022,05,05,07,08,9.20
2022,05,05,07,09,9.20
2022,05,05,07,10,9.30
2022,05,05,07,11,9.30
2022,05,05,07,12,9.30
2022,05,05,07,13,9.30
2022,05,05,07,14,9.30
2022,05,05,07,15,9.30
2022,05,05,07,16,9.30
2022,05,05,07,17,9.20
2022,05,05,07,18,9.20
2022,05,05,07,19,9.10
2022,05,05,07,20,9.00
2022,05,05,07,21,9.00
2022,05,05,07,22,8.90
2022,05,05,07,23,9.00
2022,05,05,07,24,9.00
2022,05,05,07,25,9.00
2022,05,05,07,26,8.90
2022,05,05,07,27,8.90
2022,05,05,07,28,8.90
2022,05,05,07,29,8.90
2022,05,05,07,30,8.90
2022,05,05,07,31,8.80
2022,05,05,07,32,8.80
2022,05,05,07,33,8.80
2022,05,05,07,34,8.80
2022,05,05,07,35,8.80
2022,05,05,07,36,8.70
2022,05,05,07,37,8.70
2022,05,05,07,38,8.70
2022,05,05,07,39,8.70
2022,05,05,07,40,8.70
2022,05,05,07,41,8.70
2022,05,05,07,42,8.70
2022,05,05,07,43,8.70
2022,05,05,07,44,8.70
2022,05,05,07,45,8.70
2022,05,05,07,46,8.60
2022,05,05,07,47,8.60
2022,05,05,07,48,8.60
2022,05,05,07,49,8.50
2022,05,05,07,50,8.50
2022,05,05,07,51,8.50
2022,05,05,07,52,8.50
2022,05,05,07,53,8.50
2022,05,05,07,54,8.50
2022,05,05,07,55,8.50
2022,05,05,07,56,8.50
2022,05,05,07,57,8.50
2022,05,05,07,58,8.50
2022,05,05,07,59,8.50
2022,05,05,08,00,8.60
2022,05,05,08,01,8.60
2022,05,05,08,02,8.60
2022,05,05,08,03,8.60
2022,05,05,08,04,8.60
2022,05,05,08,05,8.60
2022,05,05,08,06,8.60
2022,05,05,08,07,8.60
2022,05,05,08,08,8.60
2022,05,05,08,09,8.60
2022,05,05,08,10,8.60
2022,05,05,08,11,8.60
2022,05,05,08,12,8.60
2022,05,05,08,13,8.60
2022,05,05,08,14,8.60
2022,05,05,08,15,8.70
2022,05,05,08,16,8.70
2022,05,05,08,17,8.70
2022,05,05,08,18,8.70
2022,05,05,08,19,8.70
2022,05,05,08,20,8.70
2022,05,05,08,21,8.70
2022,05,05,08,22,8.70
2022,05,05,08,23,8.70
2022,05,05,08,24,8.70
2022,05,05,08,25,8.70
2022,05,05,08,26,8.70
2022,05,05,08,27,8.60
2022,05,05,08,28,8.60
2022,05,05,08,29,8.60
2022,05,05,08,30,8.60
2022,05,05,08,31,8.60
2022,05,05,08,32,8.60
2022,05,05,08,33,8.60
2022,05,05,08,34,8.60
2022,05,05,08,35,8.60
2022,05,05,08,36,8.60
2022,05,05,08,37,8.60
2022,05,05,08,38,8.60
2022,05,05,08,39,8.60
2022,05,05,08,40,8.60
2022,05,05,08,41,8.60
2022,05,05,08,42,8.60
2022,05,05,08,43,8.60
2022,05,05,08,44,8.60
2022,05,05,08,45,8.60
2022,05,05,08,46,8.60
2022,05,05,08,47,8.60
2022,05,05,08,48,8.50
2022,05,05,08,49,8.50
2022,05,05,08,50,8.50
2022,05,05,08,51,8.50
2022,05,05,08,52,8.50
2022,05,05,08,53,8.50
2022,05,05,08,54,8.50
2022,05,05,08,55,8.50
2022,05,05,08,56,8.50
2022,05,05,08,57,8.40
2022,05,05,08,58,8.40
2022,05,05,08,59,8.50
2022,05,05,09,00,8.50
2022,05,05,09,01,8.50
2022,05,05,09,02,8.50
2022,05,05,09,03,8.60
2022,05,05,09,04,8.60
2022,05,05,09,05,8.60
2022,05,05,09,06,8.60
2022,05,05,09,07,8.60
2022,05,05,09,08,8.70
2022,05,05,09,09,8.70
2022,05,05,09,10,8.70
2022,05,05,09,11,8.70
2022,05,05,09,12,8.70
2022,05,05,09,13,8.70
2022,05,05,09,14,8.70
2022,05,05,09,15,8.80
2022,05,05,09,16,8.80
2022,05,05,09,17,8.80
2022,05,05,09,18,8.80
2022,05,05,09,19,8.80
2022,05,05,09,20,8.80
2022,05,05,09,21,8.80
2022,05,05,09,22,8.80
2022,05,05,09,23,8.80
2022,05,05,09,24,8.70
2022,05,05,09,25,8.70
2022,05,05,09,26,8.60
2022,05,05,09,27,8.60
2022,05,05,09,28,8.60
2022,05,05,09,29,8.60
2022,05,05,09,30,8.60
2022,05,05,09,31,8.60
2022,05,05,09,32,8.50
2022,05,05,09,33,8.50
2022,05,05,09,34,8.50
2022,05,05,09,35,8.50
2022,05,05,09,36,8.50
2022,05,05,09,37,8.50
2022,05,05,09,38,8.50
2022,05,05,09,39,8.50
2022,05,05,09,40,8.50
2022,05,05,09,41,8.50
2022,05,05,09,42,8.50
2022,05,05,09,43,8.50
2022,05,05,09,44,8.50
2022,05,05,09,45,8.50
2022,05,05,09,46,8.50
2022,05,05,09,47,8.50
2022,05,05,09,48,8.60
2022,05,05,09,49,8.60
2022,05,05,09,50,8.60
2022,05,05,09,51,8.60
2022,05,05,09,52,8.60
2022,05,05,09,53,8.60
2022,05,05,09,54,8.60
2022,05,05,09,55,8.60
2022,05,05,09,56,8.60
2022,05,05,09,57,8.60
2022,05,05,09,58,8.60
2022,05,05,09,59,8.60
2022,05,05,10,00,8.50
2022,05,05,10,01,8.50
2022,05,05,10,02,8.50
2022,05,05,10,03,8.50
2022,05,05,10,04,8.50
2022,05,05,10,05,8.50
2022,05,05,10,06,8.60
2022,05,05,10,07,8.60
2022,05,05,10,08,8.60
2022,05,05,10,09,8.50
2022,05,05,10,10,8.50
2022,05,05,10,11,8.50
2022,05,05,10,12,8.50
2022,05,05,10,13,8.50
2022,05,05,10,14,8.60
2022,05,05,10,15,8.60
2022,05,05,10,16,8.60
2022,05,05,10,17,8.60
2022,05,05,10,18,8.60
2022,05,05,10,19,8.70
2022,05,05,10,20,8.60
2022,05,05,10,21,8.60
2022,05,05,10,22,8.50
2022,05,05,10,23,8.50
2022,05,05,10,24,8.50
2022,05,05,10,25,8.40
2022,05,05,10,26,8.40
2022,05,05,10,27,8.40
2022,05,05,10,28,8.30
2022,05,05,10,29,8.30
2022,05,05,10,30,8.30
2022,05,05,10,31,8.30
2022,05,05,10,32,8.30
2022,05,05,10,33,8.30
2022,05,05,10,34,8.30
2022,05,05,10,35,8.20
2022,05,05,10,36,8.20
2022,05,05,10,37,8.20
2022,05,05,10,38,8.20
2022,05,05,10,39,8.20
2022,05,05,10,40,8.20
2022,05,05,10,41,8.20
2022,05,05,10,42,8.20
2022,05,05,10,43,8.30
2022,05,05,10,44,8.30
2022,05,05,10,45,8.30
2022,05,05,10,46,8.30
2022,05,05,10,47,8.30
2022,05,05,10,48,8.30
2022,05,05,10,49,8.40
2022,05,05,10,50,8.40
2022,05,05,10,51,8.40
2022,05,05,10,52,8.40
2022,05,05,10,53,8.40
2022,05,05,10,54,8.40
2022,05,05,10,55,8.40
2022,05,05,10,56,8.40
2022,05,05,10,57,8.40
2022,05,05,10,58,8.50
2022,05,05,10,59,8.50
2022,05,05,11,00,8.50
2022,05,05,11,01,8.60
2022,05,05,11,02,8.60
2022,05,05,11,03,8.50
2022,05,05,11,04,8.50
2022,05,05,11,05,8.50
2022,05,05,11,06,8.50
2022,05,05,11,07,8.50
2022,05,05,11,08,8.60
2022,05,05,11,09,8.60
2022,05,05,11,10,8.60
2022,05,05,11,11,8.60
2022,05,05,11,12,8.60
2022,05,05,11,13,8.60
2022,05,05,11,14,8.60
2022,05,05,11,15,8.60
2022,05,05,11,16,8.60
2022,05,05,11,17,8.60
2022,05,05,11,18,8.60
2022,05,05,11,19,8.60
2022,05,05,11,20,8.70
2022,05,05,11,21,8.70
2022,05,05,11,22,8.70
2022,05,05,11,23,8.60
2022,05,05,11,24,8.60
2022,05,05,11,25,8.60
2022,05,05,11,26,8.60
2022,05,05,11,27,8.60
2022,05,05,11,28,8.60
2022,05,05,11,29,8.60
2022,05,05,11,30,8.60
2022,05,05,11,31,8.60
2022,05,05,11,32,8.60
2022,05,05,11,33,8.50
2022,05,05,11,34,8.50
2022,05,05,11,35,8.50
2022,05,05,11,36,8.40
2022,05,05,11,37,8.40
2022,05,05,11,38,8.40
2022,05,05,11,39,8.40
2022,05,05,11,40,8.40
2022,05,05,11,41,8.30
2022,05,05,11,42,8.30
2022,05,05,11,43,8.30
2022,05,05,11,44,8.30
2022,05,05,11,45,8.30
2022,05,05,11,46,8.30
2022,05,05,11,47,8.30
2022,05,05,11,48,8.30
2022,05,05,11,49,8.30
2022,05,05,11,50,8.30
2022,05,05,11,51,8.30
2022,05,05,11,52,8.30
2022,05,05,11,53,8.40
2022,05,05,11,54,8.40
2022,05,05,11,55,8.40
2022,05,05,11,56,8.30
2022,05,05,11,57,8.30
2022,05,05,11,58,8.30
2022,05,05,11,59,8.30
2022,05,05,12,00,8.30
2022,05,05,12,01,8.40
2022,05,05,12,02,8.40
2022,05,05,12,03,8.40
2022,05,05,12,04,8.40
2022,05,05,12,05,8.50
2022,05,05,12,06,8.50
2022,05,05,12,07,8.60
2022,05,05,12,08,8.60
2022,05,05,12,09,8.70
2022,05,05,12,10,8.70
2022,05,05,12,11,8.70
2022,05,05,12,12,8.80
2022,05,05,12,13,8.80
2022,05,05,12,14,8.90
2022,05,05,12,15,8.90
2022,05,05,12,16,9.00
2022,05,05,12,17,9.00
2022,05,05,12,18,9.10
2022,05,05,12,19,9.10
2022,05,05,12,20,9.10
2022,05,05,12,21,9.20
2022,05,05,12,22,9.20
2022,05,05,12,23,9.20
2022,05,05,12,24,9.30
2022,05,05,12,25,9.30
2022,05,05,12,26,9.40
2022,05,05,12,27,9.40
2022,05,05,12,28,9.50
2022,05,05,12,29,9.60
2022,05,05,12,30,9.60
2022,05,05,12,31,9.60
2022,05,05,12,32,9.50
2022,05,05,12,33,9.50
2022,05,05,12,34,9.40
2022,05,05,12,35,9.40
2022,05,05,12,36,9.30
2022,05,05,12,37,9.40
2022,05,05,12,38,9.40
2022,05,05,12,39,9.30
2022,05,05,12,40,9.30
2022,05,05,12,41,9.30
2022,05,05,12,42,9.40
2022,05,05,12,43,9.40
2022,05,05,12,44,9.40
2022,05,05,12,45,9.30
2022,05,05,12,46,9.30
2022,05,05,12,47,9.30
2022,05,05,12,48,9.30
2022,05,05,12,49,9.30
2022,05,05,12,50,9.30
2022,05,05,12,51,9.20
2022,05,05,12,52,9.20
2022,05,05,12,53,9.20
2022,05,05,12,54,9.20
2022,05,05,12,55,9.20
2022,05,05,12,56,9.10
2022,05,05,12,57,9.10
2022,05,05,12,58,9.10
2022,05,05,12,59,9.20
2022,05,05,13,00,9.20
2022,05,05,13,01,9.20
2022,05,05,13,02,9.20
2022,05,05,13,03,9.20
2022,05,05,13,04,9.20
2022,05,05,13,05,9.20
2022,05,05,13,06,9.20
2022,05,05,13,07,9.20
2022,05,05,13,08,9.20
2022,05,05,13,09,9.10
2022,05,05,13,10,9.10
2022,05,05,13,11,9.00
2022,05,05,13,12,9.00
2022,05,05,13,13,8.90
2022,05,05,13,14,8.90
2022,05,05,13,15,8.90
2022,05,05,13,16,8.90
2022,05,05,13,17,9.00
2022,05,05,13,18,9.00
2022,05,05,13,19,9.10
2022,05,05,13,20,9.10
2022,05,05,13,21,9.10
2022,05,05,13,22,9.00
2022,05,05,13,23,8.90
2022,05,05,13,24,8.90
2022,05,05,13,25,8.80
2022,05,05,13,26,8.80
2022,05,05,13,27,8.80
2022,05,05,13,28,8.80
2022,05,05,13,29,8.80
2022,05,05,13,30,8.80
2022,05,05,13,31,8.80
2022,05,05,13,32,8.70
2022,05,05,13,33,8.70
2022,05,05,13,34,8.70
2022,05,05,13,35,8.70
2022,05,05,13,36,8.80
2022,05,05,13,37,8.80
2022,05,05,13,38,8.80
2022,05,05,13,39,8.80
2022,05,05,13,40,8.90
2022,05,05,13,41,8.90
2022,05,05,13,42,8.90
2022,05,05,13,43,8.90
2022,05,05,13,44,8.90
2022,05,05,13,45,8.80
2022,05,05,13,46,8.80
2022,05,05,13,47,8.80
2022,05,05,13,48,8.80
2022,05,05,13,49,8.90
2022,05,05,13,50,8.90
2022,05,05,13,51,8.90
2022,05,05,13,52,9.00
2022,05,05,13,53,9.00
2022,05,05,13,54,9.00
2022,05,05,13,55,9.00
2022,05,05,13,56,9.00
2022,05,05,13,57,8.90
2022,05,05,13,58,8.90
2022,05,05,13,59,8.80
2022,05,05,14,00,8.80
2022,05,05,14,01,8.80
2022,05,05,14,02,8.80
2022,05,05,14,03,8.90
2022,05,05,14,04,8.90
2022,05,05,14,05,9.00
2022,05,05,14,06,9.10
2022,05,05,14,07,9.10
2022,05,05,14,08,9.10
2022,05,05,14,09,9.10
2022,05,05,14,10,9.00
2022,05,05,14,11,8.90
2022,05,05,14,12,8.90
2022,05,05,14,13,8.90
2022,05,05,14,14,8.90
2022,05,05,14,15,8.90
2022,05,05,14,16,8.90
2022,05,05,14,17,8.90
2022,05,05,14,18,8.90
2022,05,05,14,19,8.90
2022,05,05,14,20,8.90
2022,05,05,14,21,8.90
2022,05,05,14,22,8.90
2022,05,05,14,23,8.90
2022,05,05,14,24,8.90
2022,05,05,14,25,8.90
2022,05,05,14,26,8.80
2022,05,05,14,27,8.80
2022,05,05,14,28,8.80
2022,05,05,14,29,8.80
2022,05,05,14,30,8.80
2022,05,05,14,31,8.80
2022,05,05,14,32,8.70
2022,05,05,14,33,8.70
2022,05,05,14,34,8.70
2022,05,05,14,35,8.60
2022,05,05,14,36,8.60
2022,05,05,14,37,8.60
2022,05,05,14,38,8.70
2022,05,05,14,39,8.70
2022,05,05,14,40,8.70
2022,05,05,14,41,8.80
2022,05,05,14,42,8.80
2022,05,05,14,43,8.90
2022,05,05,14,44,8.90
2022,05,05,14,45,8.90
2022,05,05,14,46,8.90
2022,05,05,14,47,8.90
2022,05,05,14,48,8.90
2022,05,05,14,49,8.90
2022,05,05,14,50,8.90
2022,05,05,14,51,8.90
2022,05,05,14,52,8.90
2022,05,05,14,53,8.80
2022,05,05,14,54,8.80
2022,05,05,14,55,8.80
2022,05,05,14,56,8.80
2022,05,05,14,57,8.80
2022,05,05,14,58,8.80
2022,05,05,14,59,8.80
2022,05,05,15,00,8.80
2022,05,05,15,01,8.80
2022,05,05,15,02,8.70
2022,05,05,15,03,8.70
2022,05,05,15,04,8.70
2022,05,05,15,05,8.70
2022,05,05,15,06,8.70
2022,05,05,15,07,8.70
2022,05,05,15,08,8.70
2022,05,05,15,09,8.80
2022,05,05,15,10,8.80
2022,05,05,15,11,8.80
2022,05,05,15,12,8.80
2022,05,05,15,13,8.80
2022,05,05,15,14,8.80
2022,05,05,15,15,8.80
2022,05,05,15,16,8.80
2022,05,05,15,17,8.80
2022,05,05,15,18,8.80
2022,05,05,15,19,8.90
2022,05,05,15,20,8.90
2022,05,05,15,21,8.90
2022,05,05,15,22,8.90
2022,05,05,15,23,8.90
2022,05,05,15,24,8.90
2022,05,05,15,25,8.90
2022,05,05,15,26,8.90
2022,05,05,15,27,8.90
2022,05,05,15,28,8.90
2022,05,05,15,29,9.00
2022,05,05,15,30,9.00
2022,05,05,15,31,9.10
2022,05,05,15,32,9.20
2022,05,05,15,33,9.20
2022,05,05,15,34,9.10
2022,05,05,15,35,9.10
2022,05,05,15,36,9.10
2022,05,05,15,37,9.10
2022,05,05,15,38,9.10
2022,05,05,15,39,9.10
2022,05,05,15,40,9.10
2022,05,05,15,41,9.00
2022,05,05,15,42,8.90
2022,05,05,15,43,8.90
2022,05,05,15,44,8.90
2022,05,05,15,45,8.90
2022,05,05,15,46,9.00
2022,05,05,15,47,9.10
2022,05,05,15,48,9.20
2022,05,05,15,49,9.20
2022,05,05,15,50,9.20
2022,05,05,15,51,9.20
2022,05,05,15,52,9.20
2022,05,05,15,53,9.20
2022,05,05,15,54,9.10
2022,05,05,15,55,9.00
2022,05,05,15,56,9.10
2022,05,05,15,57,9.10
2022,05,05,15,58,9.10
2022,05,05,15,59,9.20
2022,05,05,16,00,9.20
2022,05,05,16,01,9.20
2022,05,05,16,02,9.20
2022,05,05,16,03,9.30
2022,05,05,16,04,9.40
2022,05,05,16,05,9.30
2022,05,05,16,06,9.40
2022,05,05,16,07,9.40
2022,05,05,16,08,9.40
2022,05,05,16,09,9.30
2022,05,05,16,10,9.20
2022,05,05,16,11,9.20
2022,05,05,16,12,9.30
2022,05,05,16,13,9.30
2022,05,05,16,14,9.30
2022,05,05,16,15,9.40
2022,05,05,16,16,9.40
2022,05,05,16,17,9.40
2022,05,05,16,18,9.50
2022,05,05,16,19,9.50
2022,05,05,16,20,9.60
2022,05,05,16,21,9.60
2022,05,05,16,22,9.60
2022,05,05,16,23,9.60
2022,05,05,16,24,9.60
2022,05,05,16,25,9.60
2022,05,05,16,26,9.60
2022,05,05,16,27,9.50
2022,05,05,16,28,9.40
2022,05,05,16,29,9.40
2022,05,05,16,30,9.40
2022,05,05,16,31,9.40
2022,05,05,16,32,9.40
2022,05,05,16,33,9.40
2022,05,05,16,34,9.40
2022,05,05,16,35,9.30
2022,05,05,16,36,9.30
2022,05,05,16,37,9.30
2022,05,05,16,38,9.30
2022,05,05,16,39,9.20
2022,05,05,16,40,9.30
2022,05,05,16,41,9.30
2022,05,05,16,42,9.30
2022,05,05,16,43,9.30
2022,05,05,16,44,9.30
2022,05,05,16,45,9.40
2022,05,05,16,46,9.40
2022,05,05,16,47,9.40
2022,05,05,16,48,9.40
2022,05,05,16,49,9.40
2022,05,05,16,50,9.50
2022,05,05,16,51,9.60
2022,05,05,16,52,9.60
2022,05,05,16,53,9.60
2022,05,05,16,54,9.60
2022,05,05,16,55,9.50
2022,05,05,16,56,9.50
2022,05,05,16,57,9.60
2022,05,05,16,58,9.60
2022,05,05,16,59,9.60
2022,05,05,17,00,9.60
2022,05,05,17,01,9.60
2022,05,05,17,02,9.60
2022,05,05,17,03,9.60
2022,05,05,17,04,9.70
2022,05,05,17,05,9.70
2022,05,05,17,06,9.70
2022,05,05,17,07,9.80
2022,05,05,17,08,9.80
2022,05,05,17,09,9.80
2022,05,05,17,10,9.80
2022,05,05,17,11,9.80
2022,05,05,17,12,9.80
2022,05,05,17,13,9.80
2022,05,05,17,14,9.80
2022,05,05,17,15,9.80
2022,05,05,17,16,9.80
2022,05,05,17,17,9.80
2022,05,05,17,18,9.80
2022,05,05,17,19,9.80
2022,05,05,17,20,9.80
2022,05,05,17,21,9.80
2022,05,05,17,22,9.80
2022,05,05,17,23,9.80
2022,05,05,17,24,9.80
2022,05,05,17,25,9.80
2022,05,05,17,26,9.80
2022,05,05,17,27,9.80
2022,05,05,17,28,9.70
2022,05,05,17,29,9.70
2022,05,05,17,30,9.70
2022,05,05,17,31,9.70
2022,05,05,17,32,9.70
2022,05,05,17,33,9.70
2022,05,05,17,34,9.70
2022,05,05,17,35,9.70
2022,05,05,17,36,9.70
2022,05,05,17,37,9.70
2022,05,05,17,38,9.70
2022,05,05,17,39,9.70
2022,05,05,17,40,9.70
2022,05,05,17,41,9.70
2022,05,05,17,42,9.70
2022,05,05,17,43,9.70
2022,05,05,17,44,9.70
2022,05,05,17,45,9.70
2022,05,05,17,46,9.70
2022,05,05,17,47,9.70
2022,05,05,17,48,9.70
2022,05,05,17,49,9.70
2022,05,05,17,50,9.70
2022,05,05,17,51,9.70
2022,05,05,17,52,9.70
2022,05,05,17,53,9.70
2022,05,05,17,54,9.70
2022,05,05,17,55,9.70
2022,05,05,17,56,9.70
2022,05,05,17,57,9.80
2022,05,05,17,58,9.80
2022,05,05,17,59,9.80
2022,05,05,18,00,9.80
2022,05,05,18,01,9.80
2022,05,05,18,02,9.70
2022,05,05,18,03,9.70
2022,05,05,18,04,9.80
2022,05,05,18,05,9.80
2022,05,05,18,06,9.80
2022,05,05,18,07,9.80
2022,05,05,18,08,9.80
2022,05,05,18,09,9.80